| time (UTC) | temp F | wind direction | speed knots | gust knots | rain 1hr in | rain 24hr in | rain mn in | humidity % | barometer mb |
| 20260506200456 | 69 | 238 | 0.9 | 2.6 | 0.00 | 0.10 | 0.10 | 80 | 1008.7 |
| 20260506195456 | 68 | 169 | 0.0 | 1.7 | 0.00 | 0.10 | 0.10 | 81 | 1008.7 |
| 20260506194456 | 68 | 219 | 2.6 | 2.6 | 0.00 | 0.10 | 0.10 | 81 | 1009.3 |
| 20260506193456 | 69 | 214 | 0.0 | 2.6 | 0.00 | 0.10 | 0.10 | 80 | 1009.3 |
| 20260506192526 | 69 | 265 | 2.6 | 6.1 | 0.00 | 0.10 | 0.10 | 80 | 1009.0 |
| 20260506191456 | 69 | 182 | 1.7 | 2.6 | 0.00 | 0.10 | 0.10 | 81 | 1009.1 |
| 20260506190456 | 69 | 186 | 0.9 | 2.6 | 0.00 | 0.10 | 0.10 | 80 | 1009.5 |
| 20260506184456 | 68 | 279 | 3.5 | 3.5 | 0.00 | 0.10 | 0.10 | 81 | 1009.6 |
| 20260506183456 | 69 | 217 | 0.0 | 4.3 | 0.00 | 0.10 | 0.10 | 80 | 1009.9 |
| 20260506182456 | 68 | 219 | 0.9 | 2.6 | 0.00 | 0.10 | 0.10 | 81 | 1009.7 |
| 20260506181456 | 68 | 5 | 0.9 | 2.6 | 0.00 | 0.10 | 0.10 | 82 | 1009.7 |
| 20260506180456 | 68 | 228 | 0.0 | 2.6 | 0.00 | 0.10 | 0.10 | 82 | 1010.0 |
| 20260506175456 | 67 | 293 | 0.9 | 1.7 | 0.00 | 0.10 | 0.10 | 83 | 1010.1 |
| 20260506174456 | 66 | 170 | 0.0 | 2.6 | 0.00 | 0.10 | 0.10 | 84 | 1010.2 |
| 20260506173456 | 66 | 288 | 1.7 | 2.6 | 0.00 | 0.10 | 0.10 | 85 | 1010.2 |
| 20260506172456 | 65 | 200 | 1.7 | 1.7 | 0.01 | 0.10 | 0.10 | 86 | 1010.2 |
| 20260506170456 | 65 | 13 | 0.9 | 1.7 | 0.02 | 0.10 | 0.10 | 87 | 1010.1 |
| 20260506165456 | 64 | 101 | 0.0 | 2.6 | 0.04 | 0.10 | 0.10 | 88 | 1010.4 |
| 20260506164456 | 64 | 201 | 0.0 | 3.5 | 0.07 | 0.10 | 0.10 | 88 | 1010.4 |
| 20260506163456 | 64 | 59 | 1.7 | 2.6 | 0.07 | 0.10 | 0.10 | 89 | 1010.3 |
| 20260506162456 | 64 | 230 | 0.9 | 2.6 | 0.08 | 0.09 | 0.10 | 88 | 1010.5 |
| 20260506161456 | 63 | 224 | 1.7 | 4.3 | 0.07 | 0.09 | 0.09 | 88 | 1010.6 |
| 20260506160456 | 63 | 360 | 1.7 | 2.6 | 0.07 | 0.08 | 0.08 | 87 | 1010.7 |
| 20260506155456 | 64 | 200 | 2.6 | 2.6 | 0.05 | 0.06 | 0.06 | 85 | 1010.9 |
| 20260506154456 | 65 | 168 | 0.0 | 3.5 | 0.02 | 0.03 | 0.03 | 85 | 1011.2 |
| 20260506152456 | 65 | 170 | 0.0 | 2.6 | 0.02 | 0.02 | 0.02 | 82 | 1011.4 |
| 20260506151457 | 65 | 207 | 0.0 | 2.6 | 0.02 | 0.02 | 0.02 | 81 | 1011.3 |
| 20260506150456 | 66 | 355 | 0.0 | 5.2 | 0.01 | 0.01 | 0.01 | 80 | 1011.5 |
| 20260506145457 | 66 | 322 | 0.9 | 1.7 | 0.01 | 0.01 | 0.01 | 81 | 1011.3 |
| 20260506144456 | 66 | 230 | 0.0 | 1.7 | 0.01 | 0.01 | 0.01 | 81 | 1011.4 |
| 20260506143456 | 65 | 295 | 0.0 | 1.7 | 0.01 | 0.01 | 0.01 | 80 | 1011.3 |
| 20260506142456 | 66 | 219 | 0.0 | 2.6 | 0.00 | 0.00 | 0.00 | 78 | 1011.1 |
| 20260506141456 | 67 | 267 | 0.0 | 1.7 | 0.00 | 0.00 | 0.00 | 76 | 1011.2 |
| 20260506140526 | 68 | 206 | 0.0 | 1.7 | 0.00 | 0.00 | 0.00 | 72 | 1011.1 |
| 20260506135457 | 68 | 166 | 0.9 | 2.6 | 0.00 | 0.00 | 0.00 | 70 | 1011.3 |
| 20260506134456 | 68 | 199 | 3.5 | 3.5 | 0.00 | 0.00 | 0.00 | 70 | 1011.4 |
| 20260506133456 | 68 | 165 | 0.9 | 6.1 | 0.00 | 0.00 | 0.00 | 70 | 1011.4 |
| 20260506132456 | 68 | 170 | 0.0 | 0.9 | 0.00 | 0.00 | 0.00 | 71 | 1011.2 |
| 20260506131456 | 68 | 194 | 4.3 | 4.3 | 0.00 | 0.00 | 0.00 | 69 | 1011.1 |
| 20260506130526 | 68 | 144 | 1.7 | 2.6 | 0.00 | 0.00 | 0.00 | 70 | 1011.1 |
| 20260506124456 | 68 | 232 | 2.6 | 2.6 | 0.00 | 0.00 | 0.00 | 72 | 1011.2 |
| 20260506123456 | 67 | 213 | 0.9 | 3.5 | 0.00 | 0.00 | 0.00 | 71 | 1010.9 |
| 20260506122457 | 67 | 134 | 3.5 | 5.2 | 0.00 | 0.00 | 0.00 | 72 | 1011.2 |
| 20260506121457 | 67 | 196 | 0.9 | 1.7 | 0.00 | 0.00 | 0.00 | 72 | 1011.3 |
| 20260506120456 | 66 | 292 | 2.6 | 2.6 | 0.00 | 0.00 | 0.00 | 71 | 1011.4 |
| 20260506115457 | 66 | 207 | 1.7 | 5.2 | 0.00 | 0.00 | 0.00 | 71 | 1011.4 |
| 20260506114457 | 66 | 155 | 0.0 | 2.6 | 0.00 | 0.00 | 0.00 | 71 | 1011.5 |
| 20260506113456 | 66 | 279 | 3.5 | 3.5 | 0.00 | 0.00 | 0.00 | 71 | 1011.3 |
| 20260506112457 | 66 | 196 | 0.0 | 2.6 | 0.00 | 0.00 | 0.00 | 71 | 1011.2 |
| 20260506111456 | 66 | 206 | 1.7 | 5.2 | 0.00 | 0.00 | 0.00 | 72 | 1011.1 |
| 20260506110456 | 65 | 264 | 2.6 | 2.6 | 0.00 | 0.00 | 0.00 | 73 | 1011.2 |
| 20260506105457 | 65 | 221 | 0.0 | 2.6 | 0.00 | 0.00 | 0.00 | 72 | 1011.0 |
| 20260506104456 | 65 | 243 | 0.9 | 6.1 | 0.00 | 0.00 | 0.00 | 72 | 1011.1 |
| 20260506103457 | 65 | 237 | 0.0 | 1.7 | 0.00 | 0.00 | 0.00 | 72 | 1010.9 |
| 20260506102657 | 65 | 223 | 1.7 | 1.7 | 0.00 | 0.00 | 0.00 | 73 | 1010.9 |
| 20260506101456 | 65 | 222 | 0.0 | 2.6 | 0.00 | 0.00 | 0.00 | 73 | 1010.9 |
| 20260506100456 | 65 | 279 | 0.0 | 1.7 | 0.00 | 0.00 | 0.00 | 73 | 1010.9 |
| 20260506095457 | 65 | 320 | 0.0 | 1.7 | 0.00 | 0.00 | 0.00 | 73 | 1010.9 |
| 20260506094457 | 65 | 215 | 0.9 | 1.7 | 0.00 | 0.00 | 0.00 | 73 | 1010.9 |
| 20260506093456 | 65 | 236 | 0.0 | 1.7 | 0.00 | 0.00 | 0.00 | 74 | 1010.9 |
| 20260506092457 | 65 | 77 | 0.9 | 5.2 | 0.00 | 0.00 | 0.00 | 74 | 1010.9 |
| 20260506091457 | 65 | 306 | 0.9 | 5.2 | 0.00 | 0.00 | 0.00 | 74 | 1011.0 |
| 20260506090457 | 65 | 214 | 1.7 | 2.6 | 0.00 | 0.00 | 0.00 | 74 | 1010.8 |
| 20260506085457 | 65 | 305 | 2.6 | 3.5 | 0.00 | 0.00 | 0.00 | 74 | 1011.0 |
| 20260506084457 | 65 | 163 | 0.9 | 3.5 | 0.00 | 0.00 | 0.00 | 74 | 1011.1 |
| 20260506083457 | 66 | 243 | 1.7 | 2.6 | 0.00 | 0.00 | 0.00 | 74 | 1011.0 |
| 20260506082457 | 66 | 302 | 2.6 | 5.2 | 0.00 | 0.00 | 0.00 | 74 | 1010.9 |
| 20260506081457 | 66 | 186 | 1.7 | 6.1 | 0.00 | 0.00 | 0.00 | 74 | 1011.0 |
| 20260506080457 | 66 | 207 | 0.0 | 5.2 | 0.00 | 0.00 | 0.00 | 74 | 1011.1 |
| 20260506073457 | 66 | 121 | 0.0 | 2.6 | 0.00 | 0.00 | 0.00 | 74 | 1011.1 |
| 20260506072457 | 66 | 151 | 0.9 | 2.6 | 0.00 | 0.00 | 0.00 | 73 | 1011.3 |
| 20260506071457 | 66 | 244 | 0.0 | 1.7 | 0.00 | 0.00 | 0.00 | 73 | 1011.3 |
| 20260506070457 | 66 | 252 | 0.9 | 1.7 | 0.00 | 0.00 | 0.00 | 73 | 1011.3 |
| 20260506062457 | 67 | 279 | 0.9 | 3.5 | 0.00 | 0.00 | 0.00 | 72 | 1011.3 |
| 20260506060457 | 68 | 360 | 3.5 | 3.5 | 0.00 | 0.00 | 0.00 | 71 | 1011.5 |
| 20260506050457 | 70 | 127 | 0.0 | 4.3 | 0.00 | 0.00 | 0.00 | 68 | 1011.9 |
| 20260506044457 | 70 | 9 | 1.7 | 1.7 | 0.00 | 0.00 | 0.00 | 67 | 1012.0 |
| 20260506043457 | 70 | 101 | 0.9 | 4.3 | 0.00 | 0.00 | 0.00 | 66 | 1011.9 |
| 20260506042457 | 70 | 145 | 0.0 | 2.6 | 0.00 | 0.00 | 0.00 | 65 | 1011.9 |
| 20260506041457 | 71 | 121 | 0.0 | 0.9 | 0.00 | 0.00 | 0.00 | 64 | 1011.8 |
| 20260506040457 | 71 | 132 | 0.9 | 1.7 | 0.00 | 0.00 | 0.00 | 64 | 1011.8 |
| 20260506035457 | 71 | 118 | 0.9 | 2.6 | 0.00 | 0.00 | 0.00 | 63 | 1011.8 |
| 20260506034457 | 71 | 164 | 0.9 | 0.9 | 0.00 | 0.00 | 0.00 | 62 | 1011.8 |
| 20260506033457 | 71 | 355 | 0.0 | 0.9 | 0.00 | 0.00 | 0.00 | 61 | 1011.9 |
| 20260506032527 | 72 | 30 | 0.0 | 0.9 | 0.00 | 0.00 | 0.00 | 60 | 1011.7 |
| 20260506031457 | 71 | 68 | 0.0 | 2.6 | 0.00 | 0.00 | 0.00 | 59 | 1011.8 |
| 20260506030457 | 72 | 94 | 0.0 | 1.7 | 0.00 | 0.00 | 0.00 | 58 | 1011.8 |
| 20260506025457 | 72 | 224 | 0.0 | 0.0 | 0.00 | 0.00 | 0.00 | 57 | 1011.8 |
| 20260506024657 | 72 | 23 | 0.9 | 0.9 | 0.00 | 0.00 | 0.00 | 56 | 1011.8 |
| 20260506023457 | 72 | 5 | 0.9 | 2.6 | 0.00 | 0.00 | 0.00 | 56 | 1011.8 |
| 20260506022527 | 72 | 173 | 0.9 | 1.7 | 0.00 | 0.00 | 0.00 | 55 | 1011.9 |
| 20260506020457 | 74 | 169 | 0.0 | 0.9 | 0.00 | 0.00 | 0.00 | 52 | 1011.7 |
| 20260506015457 | 73 | 84 | 0.0 | 1.7 | 0.00 | 0.00 | 0.00 | 52 | 1011.7 |
| 20260506014457 | 74 | 244 | 0.0 | 1.7 | 0.00 | 0.00 | 0.00 | 51 | 1011.7 |
| 20260506013457 | 74 | 82 | 0.0 | 2.6 | 0.00 | 0.00 | 0.00 | 50 | 1011.5 |
| 20260506012457 | 74 | 219 | 0.9 | 3.5 | 0.00 | 0.00 | 0.00 | 49 | 1011.5 |
| 20260506011457 | 75 | 238 | 1.7 | 2.6 | 0.00 | 0.00 | 0.00 | 48 | 1011.4 |
| 20260506010457 | 75 | 211 | 0.9 | 1.7 | 0.00 | 0.00 | 0.00 | 48 | 1011.2 |
| 20260506005457 | 75 | 196 | 0.0 | 0.9 | 0.00 | 0.00 | 0.00 | 47 | 1011.1 |
| 20260506004457 | 76 | 338 | 0.9 | 2.6 | 0.00 | 0.00 | 0.00 | 47 | 1011.1 |
| 20260506003457 | 76 | 299 | 0.0 | 2.6 | 0.00 | 0.00 | 0.00 | 46 | 1010.9 |
| 20260506002457 | 76 | 213 | 1.7 | 1.7 | 0.00 | 0.00 | 0.00 | 45 | 1010.9 |
| 20260506001457 | 77 | 200 | 0.0 | 0.9 | 0.00 | 0.00 | 0.00 | 44 | 1010.8 |
| 20260506000457 | 77 | 178 | 1.7 | 2.6 | 0.00 | 0.00 | 0.00 | 43 | 1010.7 |
| 20260505235457 | 77 | 237 | 0.0 | 4.3 | 0.00 | 0.00 | 0.00 | 43 | 1010.6 |
| 20260505234457 | 78 | 168 | 0.0 | 3.5 | 0.00 | 0.00 | 0.00 | 41 | 1010.5 |
| 20260505233457 | 79 | 205 | 0.9 | 2.6 | 0.00 | 0.00 | 0.00 | 40 | 1010.4 |
| 20260505232457 | 79 | 200 | 1.7 | 2.6 | 0.00 | 0.00 | 0.00 | 40 | 1010.3 |
| 20260505231457 | 80 | 144 | 1.7 | 2.6 | 0.00 | 0.00 | 0.00 | 38 | 1010.4 |
| 20260505230457 | 80 | 155 | 1.7 | 1.7 | 0.00 | 0.00 | 0.00 | 39 | 1010.3 |
| 20260505225457 | 80 | 199 | 1.7 | 5.2 | 0.00 | 0.00 | 0.00 | 38 | 1010.2 |
| 20260505224457 | 80 | 160 | 0.9 | 2.6 | 0.00 | 0.00 | 0.00 | 37 | 1010.2 |
| 20260505223457 | 80 | 182 | 1.7 | 3.5 | 0.00 | 0.00 | 0.00 | 38 | 1010.2 |
| 20260505222457 | 81 | 67 | 0.0 | 6.1 | 0.00 | 0.00 | 0.00 | 37 | 1010.2 |
| 20260505221457 | 81 | 240 | 0.9 | 2.6 | 0.00 | 0.00 | 0.00 | 36 | 1010.2 |
| 20260505220557 | 81 | 180 | 2.6 | 5.2 | 0.00 | 0.00 | 0.00 | 35 | 1010.1 |
| 20260505215457 | 82 | 342 | 0.9 | 4.3 | 0.00 | 0.00 | 0.00 | 35 | 1010.1 |
| 20260505214457 | 82 | 5 | 0.0 | 6.1 | 0.00 | 0.00 | 0.00 | 34 | 1010.1 |
| 20260505213457 | 83 | 253 | 2.6 | 3.5 | 0.00 | 0.00 | 0.00 | 32 | 1010.1 |
| 20260505212457 | 83 | 215 | 0.0 | 7.0 | 0.00 | 0.00 | 0.00 | 32 | 1010.1 |
| 20260505211457 | 83 | 298 | 0.9 | 4.3 | 0.00 | 0.00 | 0.00 | 35 | 1010.0 |
| 20260505210457 | 83 | 152 | 0.9 | 6.1 | 0.00 | 0.00 | 0.00 | 34 | 1010.2 |
| 20260505204458 | 84 | 130 | 1.7 | 7.0 | 0.00 | 0.00 | 0.00 | 31 | 1010.1 |
| 20260505203457 | 85 | 207 | 0.0 | 5.2 | 0.00 | 0.00 | 0.00 | 34 | 1010.1 |
| 20260505202457 | 84 | 227 | 3.5 | 3.5 | 0.00 | 0.00 | 0.00 | 33 | 1010.2 |
| 20260505201457 | 84 | 247 | 1.7 | 8.7 | 0.00 | 0.00 | 0.00 | 36 | 1010.4 |